Regional Weather Roundup
Issued by NWS Goodland, KS

Home | Current Version | Previous Version | Graphics & Text | Print | Product List | Glossary On
Versions: 1 2 3 4 5 6 7 8 9 10 11 12 13 14 15 16 17 18 19 20 21 22 23 24 25 26 27 28 29 30 31 32 33 34 35 36 37 38 39 40 41 42 43 44 45 46 47 48 49 50
000
ASUS43 KGLD 282208
RWRGLD

GOODLAND FORECAST AREA HOURLY WEATHER ROUNDUP
NATIONAL WEATHER SERVICE GOODLAND KS
300 PM MST SAT FEB 28 2015

...OFFICIAL OBSERVATIONS...

CITY           SKY/WX    TMP DP  RH WIND       PRES   REMARKS
GOODLAND KS    LGT SNOW  19  13  77 S9        30.08S
HILL CITY KS   CLOUDY    21  13  71 SE9       30.22S
IMPERIAL NEB     N/A     26  10  50 VRB7      30.08S
MCCOOK NEB     CLOUDY    27  12  53 SE12      30.15S WCI  17
AKRON CO       MOSUNNY   22  14  71 SE6       29.98R
BURLINGTON CO  CLOUDY    19  12  74 SE8       30.03S HAZE
LIMON CO       MOSUNNY   19  11  70 N10       29.93F WCI   7
$$

...UNOFFICIAL OBSERVATIONS...

CITY           SKY/WX    TMP DP  RH WIND       PRES   REMARKS
COLBY KS       LGT SNOW  21  18  86 S7        30.13F
GOVE KS          N/A     21  32 100 MISG        N/A
LENORA KS        N/A     20  32 100 S10         N/A  WCI   9
NORTON KS      CLOUDY    23  12  63 SE7       30.19S
SHARON SPRINGS   N/A     21  16  81 S6          N/A
KIT CARSON CO    N/A     18  13  80 MISG        N/A
YUMA CO          N/A     24  14  64 E5          N/A
$$


USA.gov is the U.S. government's official web portal to all federal, state and local government web resources and services.